Point Lay, AK

8:14 PM AKDT on July 25, 2016 (GMT -0800)
Point Lay

Weather History for PPIZ - March, 2013

Change the Weather History Date:

Monday, March 25, 2013

  Actual Average Record
Temperature  
Mean Temperature -10 °F -  
Max Temperature -8 °F 0 °F 18 °F (1998)
Min Temperature -13 °F -12 °F -31 °F (2006)
Degree Days  
Heating Degree Days 76    
Moisture  
Dew Point -17 °F    
Average Humidity 74    
Maximum Humidity 79    
Minimum Humidity 71    
Precipitation  
Precipitation 0.00 in - - ()
Sea Level Pressure  
Sea Level Pressure 30.17 in    
Wind  
Wind Speed 14 mph (NNE)    
Max Wind Speed 18 mph    
Max Gust Speed -    
Visibility 8 miles    
Events Snow    
Averages and records for this station are not official NWS values.
T = Trace of Precipitation, MM = Missing Value Source: NWS Daily Summary

Daily Weather History Graph

Daily Weather History Graph

Search for Another Location

Airport or City:

Trip Planner

Search our weather history database for the weather conditions in past years. The results will help you decide how hot, cold, wet, or windy it might be!

Date:

Astronomy

Mar. 25, 2013 Rise Set
Actual Time 8:25 AM AKDT 9:32 PM AKDT
Civil Twilight 7:23 AM AKDT 10:34 PM AKDT
Nautical Twilight 6:01 AM AKDT 11:58 PM AKDT
Astronomical Twilight 3:35 AM AKDT 2:25 AM AKDT
Moon 7:56 PM AKDT (3/25) 7:53 AM AKDT (3/25)
Length of Visible Light 15h 10m
Length of Day
13h 06m
Waxing Gibbous, 97% of the Moon is Illuminated
Mar 25
Waxing Gibbous
Mar 27
Full
Apr 2
Last Quarter
Apr 10
New
Apr 18
First Quarter

Hourly Weather History & Observations

Time (AKDT) Temp. Windchill Dew Point Humidity Pressure Visibility Wind Dir Wind Speed Gust Speed Precip Events Conditions
12:56 AM -13.9 °F -31.1 °F -18.9 °F 78% 30.21 in 10.0 mi North 8.1 mph - N/A   Scattered Clouds
1:03 AM -13.0 °F -31.3 °F -18.4 °F 77% 30.20 in 10.0 mi North 9.2 mph - N/A   Mostly Cloudy
1:56 AM -13.0 °F -31.3 °F -17.9 °F 79% 30.21 in 10.0 mi North 9.2 mph - N/A   Mostly Cloudy
2:56 AM -11.9 °F -33.8 °F -17.0 °F 78% 30.20 in 10.0 mi North 13.8 mph - N/A   Scattered Clouds
3:33 AM -11.2 °F -32.9 °F -16.6 °F 77% 30.19 in 10.0 mi NNE 13.8 mph - N/A   Overcast
3:56 AM -9.4 °F -31.4 °F -16.6 °F 71% 30.19 in 10.0 mi NNE 15.0 mph - N/A   Mostly Cloudy
4:56 AM -9.9 °F -33.5 °F -15.0 °F 78% 30.20 in 6.0 mi NNE 17.3 mph - 0.00 in Snow Light Snow
5:04 AM -9.4 °F -32.1 °F -16.6 °F 71% 30.19 in 5.0 mi NNE 16.1 mph - 0.00 in Snow Light Snow
5:32 AM -9.4 °F -31.4 °F -16.6 °F 71% 30.19 in 5.0 mi North 15.0 mph - 0.00 in Snow Light Snow
5:36 AM -9.4 °F -31.4 °F -16.6 °F 71% 30.19 in 4.0 mi North 15.0 mph - 0.00 in Snow Light Snow
5:56 AM -9.9 °F -34.2 °F -15.0 °F 78% 30.20 in 5.0 mi NNE 18.4 mph - 0.00 in Snow Light Snow
6:07 AM -9.4 °F -32.8 °F -16.6 °F 71% 30.18 in 7.0 mi North 17.3 mph - 0.00 in Snow Light Snow
6:13 AM -9.4 °F -32.1 °F -16.6 °F 71% 30.18 in 10.0 mi NNE 16.1 mph - 0.00 in   Mostly Cloudy
6:37 AM -9.4 °F -32.1 °F -16.6 °F 71% 30.18 in 10.0 mi North 16.1 mph - 0.00 in Snow Light Snow
6:46 AM -9.4 °F -32.1 °F -16.6 °F 71% 30.18 in 10.0 mi NNE 16.1 mph - 0.00 in   Mostly Cloudy
6:56 AM -9.4 °F -32.1 °F -16.6 °F 71% 30.18 in 9.0 mi NNE 16.1 mph - N/A Snow Light Snow
7:37 AM -11.2 °F -33.7 °F -16.6 °F 77% 30.18 in 8.0 mi NNE 15.0 mph - 0.00 in Snow Light Snow
7:49 AM -11.2 °F -33.7 °F -16.6 °F 77% 30.18 in 9.0 mi North 15.0 mph - 0.00 in Snow Light Snow
7:56 AM -9.9 °F -32.8 °F -15.9 °F 75% 30.19 in 8.0 mi North 16.1 mph - 0.00 in Snow Light Snow
8:11 AM -11.2 °F -33.7 °F -16.6 °F 77% 30.18 in 10.0 mi North 15.0 mph - 0.00 in   Overcast
8:27 AM -11.2 °F -32.9 °F -16.6 °F 77% 30.18 in 10.0 mi North 13.8 mph - 0.00 in Snow Light Snow
8:56 AM -11.9 °F -34.6 °F -17.0 °F 78% 30.19 in 10.0 mi North 15.0 mph - 0.00 in Snow Light Snow
9:56 AM -10.8 °F -33.2 °F -17.0 °F 74% 30.19 in 10.0 mi North 15.0 mph - 0.00 in   Clear
10:15 AM -11.2 °F -32.1 °F -16.6 °F 77% 30.18 in 9.0 mi NNE 12.7 mph - N/A   Scattered Clouds
10:30 AM -11.2 °F -32.1 °F -16.6 °F 77% 30.18 in 8.0 mi NNE 12.7 mph - N/A   Overcast
10:56 AM -11.9 °F -32.0 °F -17.0 °F 78% 30.20 in 9.0 mi NNE 11.5 mph - N/A   Mostly Cloudy
11:37 AM -11.2 °F -32.9 °F -16.6 °F 77% 30.19 in 7.0 mi NNE 13.8 mph - N/A   Overcast
11:56 AM -10.8 °F -32.5 °F -17.0 °F 74% 30.20 in 10.0 mi NNE 13.8 mph - N/A   Mostly Cloudy
12:20 PM -11.2 °F -32.9 °F -16.6 °F 77% 30.18 in 9.0 mi NNE 13.8 mph - N/A   Scattered Clouds
12:56 PM -10.8 °F -32.5 °F -17.0 °F 74% 30.20 in 10.0 mi North 13.8 mph - N/A   Partly Cloudy
1:56 PM -9.9 °F -31.3 °F -15.9 °F 75% 30.19 in 10.0 mi NNE 13.8 mph - N/A   Clear
2:56 PM -8.9 °F -29.9 °F -15.9 °F 71% 30.19 in 10.0 mi NNE 13.8 mph - N/A   Partly Cloudy
3:56 PM -8.9 °F -32.8 °F -15.9 °F 71% 30.19 in 10.0 mi NNE 18.4 mph - N/A   Partly Cloudy
4:16 PM -9.4 °F -33.5 °F -16.6 °F 71% 30.17 in 7.0 mi NNE 18.4 mph - N/A   Mostly Cloudy
4:56 PM -8.9 °F -32.1 °F -15.9 °F 71% 30.18 in 6.0 mi NNE 17.3 mph - N/A   Haze
5:56 PM -8.9 °F -32.8 °F -15.9 °F 71% 30.18 in 9.0 mi NNE 18.4 mph - 0.00 in   Overcast
6:56 PM -9.4 °F -32.1 °F -16.6 °F 71% 30.15 in 6.0 mi NNE 16.1 mph - N/A Snow Light Snow
7:32 PM -9.4 °F -32.1 °F -16.6 °F 71% 30.15 in 9.0 mi NNE 16.1 mph - 0.00 in   Partly Cloudy
7:56 PM -9.9 °F -34.2 °F -15.9 °F 75% 30.17 in 6.0 mi NNE 18.4 mph - 0.00 in Snow Light Snow
8:12 PM -9.4 °F -32.1 °F -16.6 °F 71% 30.15 in 5.0 mi NNE 16.1 mph - 0.00 in Snow Light Snow
8:22 PM -9.4 °F -32.8 °F -16.6 °F 71% 30.15 in 9.0 mi North 17.3 mph - 0.00 in Snow Light Snow
8:32 PM -9.4 °F -32.1 °F -16.6 °F 71% 30.15 in 8.0 mi NNE 16.1 mph - 0.00 in Snow Light Snow
8:47 PM -9.4 °F -32.8 °F -16.6 °F 71% 30.14 in 6.0 mi NNE 17.3 mph - 0.00 in Snow Light Snow
8:56 PM -9.9 °F -33.5 °F -15.9 °F 75% 30.16 in 5.0 mi NNE 17.3 mph - 0.00 in Snow Light Snow
9:01 PM -9.4 °F -32.8 °F -16.6 °F 71% 30.14 in 4.0 mi NNE 17.3 mph - 0.00 in Snow Light Snow
9:15 PM -9.4 °F -33.5 °F -16.6 °F 71% 30.14 in 5.0 mi NNE 18.4 mph - 0.00 in   Haze
9:56 PM -9.4 °F -32.8 °F -16.6 °F 71% 30.13 in 3.0 mi NNE 17.3 mph - N/A Snow Light Snow
10:22 PM -9.4 °F -33.5 °F -16.6 °F 71% 30.13 in 9.0 mi NNE 18.4 mph - 0.00 in   Overcast
10:35 PM -9.4 °F -32.1 °F -16.6 °F 71% 30.13 in 10.0 mi NNE 16.1 mph - 0.00 in   Overcast
10:56 PM -9.9 °F -32.1 °F -15.9 °F 75% 30.15 in 5.0 mi NNE 15.0 mph - 0.00 in Snow Light Snow
11:05 PM -11.2 °F -33.7 °F -16.6 °F 77% 30.13 in 6.0 mi NNE 15.0 mph - 0.00 in Snow Light Snow
11:56 PM -10.8 °F -34.0 °F -15.9 °F 78% 30.14 in 6.0 mi North 16.1 mph - 0.00 in Snow Light Snow